Location: Aigremont
(47.7188°N, 3.8925°E)
Time: 06:48:13
(UTC+00:00)

Cosmos 1869 - Pass Details

Date: 18 February 2020
Orbit: 525 x 558 km, 82.5° (Epoch: 09 April)

Event Time Altitude Azimuth Distance (km) Brightness Sun altitude
Rises 05:48:54 0° 212° (SSW) 2,712 6.6 -10.3°
Reaches altitude 10° 05:51:14 10° 222° (SW) 1,818 5.6 -9.9°
Maximum altitude 05:54:50 32° 286° (WNW) 955 4.0 -9.3°
Drops below altitude 10° 05:58:26 10° 351° (N) 1,813 5.8 -8.7°
Sets 06:00:46 0° 2° (N) 2,704 6.8 -8.3°
